CW0879 Weather Reports


Display with metric or nautical units.
time (UTC)temp
F
wind
direction
speed
MPH
gust
MPH
rain 1hr
in
rain 24hr
in
rain mn
in
humidity
%
barometer
mb
20260505173013 58 273 6.0 9.0 0.00 0.31 0.11 85 1015.9
20260505172507 58 277 5.0 8.0 0.00 0.31 0.11 86 1015.7
20260505172010 58 293 4.0 8.0 0.00 0.31 0.11 86 1015.8
20260505171521 58 291 5.0 7.0 0.00 0.31 0.11 86 1015.9
20260505171004 58 284 4.0 8.0 0.00 0.31 0.11 86 1015.8
20260505170506 58 292 5.0 9.0 0.00 0.31 0.11 87 1015.7
20260505170020 58 296 4.0 9.0 0.00 0.31 0.11 87 1015.8
20260505165504 58 286 5.0 10.0 0.00 0.31 0.11 87 1015.8
20260505165005 57 285 5.0 10.0 0.00 0.31 0.11 87 1015.9
20260505164520 57 269 6.0 9.0 0.00 0.31 0.11 87 1015.8
20260505164003 57 281 5.0 9.0 0.00 0.31 0.11 88 1015.8
20260505163506 57 279 5.0 9.0 0.00 0.31 0.11 88 1015.7
20260505163011 57 290 6.0 11.0 0.00 0.31 0.11 88 1015.8
20260505162511 57 276 8.0 11.0 0.00 0.31 0.11 88 1015.8
20260505162007 57 275 4.0 10.0 0.00 0.31 0.11 89 1015.7
20260505161533 57 267 8.0 11.0 0.00 0.31 0.11 89 1015.7
20260505161010 56 264 7.0 11.0 0.00 0.31 0.11 89 1015.7
20260505160513 56 273 5.0 11.0 0.00 0.31 0.11 89 1015.7
20260505153025 56 261 8.0 12.0 0.00 0.31 0.11 91 1015.4
20260505152506 55 259 8.0 16.0 0.00 0.31 0.11 91 1015.4
20260505152003 55 269 9.0 16.0 0.00 0.31 0.11 91 1015.3
20260505151532 55 265 8.0 14.0 0.00 0.31 0.11 91 1015.3
20260505151008 55 266 9.0 14.0 0.00 0.31 0.11 91 1015.3
20260505150508 55 246 8.0 13.0 0.00 0.31 0.11 91 1015.2
20260505140508 54 260 6.0 12.0 0.00 0.31 0.11 92 1014.9
20260505125013 53 222 4.0 9.0 0.00 0.31 0.11 93 1014.6
20260505124518 53 215 4.0 9.0 0.00 0.31 0.11 93 1014.5
20260505124008 53 223 3.0 8.0 0.00 0.31 0.11 93 1014.5
20260505123509 53 214 4.0 14.0 0.00 0.31 0.11 93 1014.5
20260505123012 53 235 6.0 14.0 0.00 0.31 0.11 93 1014.5
20260505122507 53 231 4.0 8.0 0.00 0.31 0.11 93 1014.5
20260505122011 53 216 5.0 8.0 0.00 0.31 0.11 93 1014.6
20260505121532 53 215 4.0 7.0 0.00 0.31 0.11 93 1014.7
20260505121004 53 209 4.0 8.0 0.00 0.31 0.11 93 1014.6
20260505120510 53 211 4.0 8.0 0.00 0.31 0.11 93 1014.6
20260505120024 53 229 5.0 9.0 0.00 0.31 0.11 93 1014.5
20260505115505 53 219 4.0 9.0 0.00 0.31 0.11 93 1014.5
20260505115008 53 237 5.0 9.0 0.00 0.31 0.11 93 1014.5
20260505114513 53 227 3.0 7.0 0.00 0.31 0.11 93 1014.4
20260505114008 52 229 3.0 7.0 0.00 0.31 0.11 93 1014.5
20260505113504 52 209 2.0 6.0 0.00 0.31 0.11 93 1014.5
20260505113018 52 205 3.0 6.0 0.00 0.31 0.11 93 1014.5
20260505112512 52 189 1.0 5.0 0.00 0.31 0.11 93 1014.5
20260505112009 52 188 2.0 5.0 0.00 0.31 0.11 93 1014.5
20260505111516 52 187 2.0 5.0 0.00 0.31 0.11 93 1014.5
20260505111011 52 180 1.0 5.0 0.00 0.31 0.11 93 1014.7
20260505110514 52 180 3.0 6.0 0.00 0.31 0.11 93 1014.7
20260505102007 52 203 1.0 6.0 0.00 0.31 0.11 93 1014.8
20260505101529 52 198 2.0 6.0 0.00 0.31 0.11 93 1014.8
20260505101010 52 198 2.0 5.0 0.00 0.31 0.11 93 1014.9
20260505100508 52 198 1.0 7.0 0.00 0.31 0.11 93 1014.9
20260505100024 52 198 2.0 8.0 0.00 0.31 0.11 93 1014.7
20260505095508 52 180 3.0 8.0 0.01 0.31 0.11 93 1014.6
20260505095007 53 213 3.0 7.0 0.01 0.31 0.11 92 1014.5
20260505094517 52 194 2.0 6.0 0.01 0.31 0.11 92 1014.7
20260505094010 52 204 2.0 5.0 0.01 0.31 0.11 92 1014.9
20260505093508 53 207 2.0 6.0 0.02 0.31 0.11 92 1014.9
20260505093018 53 194 2.0 6.0 0.02 0.31 0.11 92 1015.0
20260505092509 53 192 2.0 5.0 0.02 0.31 0.11 92 1015.0
20260505092008 53 191 2.0 5.0 0.02 0.31 0.11 92 1015.0
20260505091518 53 190 2.0 5.0 0.02 0.31 0.11 92 1015.1
20260505091010 53 216 2.0 7.0 0.02 0.31 0.11 92 1015.1
20260505090509 53 215 3.0 7.0 0.02 0.31 0.11 92 1015.1
20260505090037 53 210 3.0 6.0 0.02 0.31 0.11 92 1015.0
20260505085508 53 213 2.0 7.0 0.02 0.30 0.10 92 1015.2
20260505085007 53 202 3.0 7.0 0.02 0.30 0.10 92 1015.2
20260505084526 53 202 2.0 5.0 0.03 0.30 0.10 92 1015.3
20260505084011 53 198 2.0 6.0 0.04 0.30 0.10 92 1015.4
20260505083509 53 192 2.0 6.0 0.04 0.29 0.09 92 1015.5
20260505083023 53 196 2.0 7.0 0.04 0.29 0.09 92 1015.6
20260505082512 53 198 3.0 7.0 0.06 0.29 0.09 92 1015.5
20260505082013 53 221 2.0 5.0 0.07 0.29 0.09 92 1015.4
20260505081524 53 221 0.0 3.0 0.08 0.29 0.09 92 1015.4
20260505081013 53 221 1.0 4.0 0.08 0.29 0.09 92 1015.4
20260505080510 53 221 2.0 5.0 0.08 0.29 0.09 92 1015.5
20260505080036 53 221 2.0 5.0 0.09 0.29 0.09 92 1015.5
20260505075507 53 221 1.0 6.0 0.08 0.28 0.08 91 1015.6
20260505075007 53 222 4.0 10.0 0.08 0.28 0.08 91 1015.6
20260505074526 53 252 4.0 11.0 0.07 0.27 0.07 92 1015.6
20260505074008 53 265 6.0 11.0 0.06 0.26 0.06 92 1015.6
20260505073506 53 286 7.0 13.0 0.05 0.25 0.05 92 1015.8
20260505073033 53 273 7.0 13.0 0.05 0.25 0.05 91 1015.6
20260505072509 53 262 7.0 10.0 0.03 0.23 0.03 91 1015.4
20260505072010 53 239 3.0 5.0 0.02 0.22 0.02 91 1015.5
20260505071537 53 240 3.0 10.0 0.02 0.21 0.01 91 1015.7
20260505071007 53 250 3.0 10.0 0.02 0.21 0.01 91 1015.7
20260505070511 53 270 7.0 10.0 0.02 0.21 0.01 91 1015.7
20260505070026 53 244 2.0 10.0 0.01 0.20 0.00 91 1015.9
20260505065511 53 278 7.0 10.0 0.02 0.20 0.20 91 1015.9
20260505065007 53 281 7.0 10.0 0.03 0.20 0.20 91 1015.9
20260505064528 53 294 6.0 10.0 0.04 0.20 0.20 91 1015.8
20260505064010 52 273 5.0 8.0 0.05 0.20 0.20 91 1015.8
20260505063507 52 214 2.0 5.0 0.06 0.20 0.20 91 1015.8
20260505063019 52 213 1.0 5.0 0.06 0.20 0.20 91 1015.7
20260505062511 52 212 3.0 6.0 0.07 0.20 0.20 91 1015.7
20260505062009 52 213 1.0 7.0 0.07 0.20 0.20 91 1015.7
20260505061531 52 215 3.0 11.0 0.07 0.19 0.19 90 1015.5
20260505061006 53 223 5.0 11.0 0.07 0.19 0.19 90 1015.3
20260505060514 53 244 3.0 8.0 0.08 0.19 0.19 90 1015.3
20260505060034 53 218 3.0 9.0 0.08 0.19 0.19 90 1015.3
20260505055513 53 270 6.0 10.0 0.07 0.18 0.18 90 1015.5
20260505055013 53 277 6.0 10.0 0.07 0.17 0.17 90 1015.6
20260505054527 53 270 6.0 10.0 0.06 0.16 0.16 90 1015.7
20260505054011 53 265 5.0 9.0 0.05 0.15 0.15 90 1015.7
20260505053514 53 266 7.0 11.0 0.05 0.14 0.14 90 1015.8
20260505053010 53 244 7.0 12.0 0.06 0.14 0.14 90 1015.7
20260505052507 53 269 9.0 12.0 0.06 0.13 0.13 90 1015.6
20260505052007 53 271 9.0 11.0 0.07 0.13 0.13 90 1015.6
20260505051525 53 267 7.0 12.0 0.06 0.12 0.12 90 1015.5
20260505051006 53 225 9.0 12.0 0.06 0.12 0.12 89 1015.5
20260505050507 54 269 6.0 11.0 0.06 0.11 0.11 89 1015.6
20260505041515 54 286 10.0 16.0 0.04 0.06 0.06 88 1016.1
20260505041007 55 286 12.0 16.0 0.05 0.06 0.06 88 1016.1
20260505040511 55 296 13.0 16.0 0.04 0.05 0.05 88 1016.1
20260505040010 55 292 13.0 16.0 0.04 0.05 0.05 88 1016.0
20260505035511 55 288 11.0 16.0 0.03 0.04 0.04 88 1015.9
20260505035018 55 290 11.0 16.0 0.03 0.04 0.04 88 1015.9
20260505034511 55 298 11.0 16.0 0.02 0.03 0.03 88 1015.7
20260505034003 55 296 11.0 16.0 0.02 0.03 0.03 88 1015.5
20260505033511 55 284 11.0 16.0 0.02 0.03 0.03 88 1015.4
20260505033024 55 286 12.0 15.0 0.01 0.02 0.02 88 1015.3
20260505032504 55 274 11.0 15.0 0.01 0.02 0.02 88 1015.2
20260505032010 55 298 11.0 16.0 0.01 0.02 0.02 88 1015.1
20260505031519 55 271 12.0 16.0 0.01 0.02 0.02 88 1015.0
20260505031006 56 284 9.0 12.0 0.01 0.01 0.01 88 1015.0
20260505030504 56 289 9.0 16.0 0.01 0.01 0.01 88 1014.9
20260505030022 56 299 10.0 16.0 0.01 0.01 0.01 88 1015.0
20260505025510 56 298 10.0 15.0 0.01 0.01 0.01 88 1014.9
20260505025009 56 303 12.0 15.0 0.01 0.01 0.01 88 1014.9
20260505024520 56 294 11.0 16.0 0.01 0.01 0.01 88 1015.1
20260505024010 56 295 12.0 16.0 0.01 0.01 0.01 88 1015.0
20260505023507 56 294 11.0 16.0 0.01 0.01 0.01 88 1015.0
20260505023015 56 317 12.0 16.0 0.01 0.01 0.01 88 1015.1
20260505022508 56 297 10.0 14.0 0.01 0.01 0.01 88 1015.1
20260505022008 56 307 10.0 13.0 0.01 0.01 0.01 88 1015.1
20260505021516 56 311 9.0 13.0 0.01 0.01 0.01 88 1015.1
20260505021008 56 306 9.0 13.0 0.00 0.00 0.00 87 1015.1
20260505020507 57 295 10.0 13.0 0.00 0.00 0.00 87 1015.0
20260505020020 56 298 8.0 12.0 0.00 0.00 0.00 87 1015.0
20260505015505 57 286 10.0 12.0 0.00 0.00 0.00 87 1015.0
20260505015008 57 297 9.0 13.0 0.00 0.00 0.00 87 1015.2
20260505014535 57 299 8.0 13.0 0.00 0.00 0.00 86 1015.3
20260505014014 57 298 8.0 12.0 0.00 0.00 0.00 86 1015.3
20260505013508 57 290 8.0 13.0 0.00 0.00 0.00 86 1015.4
20260505013023 57 291 10.0 13.0 0.00 0.00 0.00 85 1015.4
20260505012511 57 294 9.0 14.0 0.00 0.00 0.00 85 1015.5
20260505012011 57 286 11.0 15.0 0.00 0.00 0.00 84 1015.5
20260505011520 57 288 10.0 16.0 0.00 0.00 0.00 84 1015.5
20260505011006 58 277 10.0 16.0 0.00 0.00 0.00 83 1015.5
20260505010507 58 271 11.0 17.0 0.00 0.00 0.00 82 1015.5
20260505010020 58 276 12.0 17.0 0.00 0.00 0.00 80 1015.5
20260505005508 58 275 12.0 17.0 0.00 0.00 0.00 80 1015.4
20260505005011 58 283 13.0 17.0 0.00 0.00 0.00 79 1015.3
20260505004525 58 278 14.0 17.0 0.00 0.00 0.00 78 1015.3
20260505004008 59 279 12.0 17.0 0.00 0.00 0.00 77 1015.3
20260505003507 59 279 12.0 15.0 0.00 0.00 0.00 77 1015.3
20260505003026 59 286 12.0 16.0 0.00 0.00 0.00 76 1015.4
20260505002508 59 285 12.0 16.0 0.00 0.00 0.00 75 1015.4
20260505002007 60 290 14.0 16.0 0.00 0.00 0.00 75 1015.4
20260505001528 60 302 11.0 15.0 0.00 0.00 0.00 76 1015.4
20260505001010 60 298 12.0 15.0 0.00 0.00 0.00 76 1015.4
20260505000506 60 293 9.0 15.0 0.00 0.00 0.00 75 1015.3
20260505000025 60 273 11.0 15.0 0.00 0.00 0.00 74 1015.3
20260504235511 60 278 11.0 15.0 0.00 0.00 0.00 74 1015.3
20260504235007 61 296 10.0 15.0 0.00 0.00 0.00 74 1015.3
20260504234521 61 292 11.0 16.0 0.00 0.00 0.00 74 1015.2
20260504234014 61 281 13.0 16.0 0.00 0.00 0.00 73 1015.2
20260504233507 61 292 12.0 16.0 0.00 0.00 0.00 73 1015.2
20260504233018 61 273 12.0 16.0 0.00 0.00 0.00 71 1015.1
20260504232508 61 282 12.0 16.0 0.00 0.00 0.00 70 1015.2
20260504232009 61 268 12.0 16.0 0.00 0.00 0.00 69 1015.1
20260504231524 61 288 12.0 16.0 0.00 0.00 0.00 70 1015.1
20260504231009 62 285 12.0 15.0 0.00 0.00 0.00 70 1015.1
20260504230507 62 290 12.0 15.0 0.00 0.00 0.00 70 1015.0
20260504230026 62 293 13.0 15.0 0.00 0.00 0.00 70 1015.1
20260504225509 62 285 11.0 15.0 0.00 0.00 0.00 71 1015.1
20260504225010 62 292 10.0 15.0 0.00 0.00 0.00 71 1015.1
20260504224535 62 288 10.0 12.0 0.00 0.00 0.00 71 1015.2
20260504224007 62 283 8.0 11.0 0.00 0.00 0.00 70 1015.2
20260504223512 63 279 8.0 10.0 0.00 0.00 0.00 72 1015.3
20260504223007 63 268 8.0 10.0 0.00 0.00 0.00 71 1015.3
20260504222508 63 277 7.0 10.0 0.00 0.00 0.00 71 1015.4
20260504222009 63 272 8.0 12.0 0.00 0.00 0.00 71 1015.4
20260504221505 63 267 8.0 12.0 0.00 0.00 0.00 70 1015.4
20260504221005 63 237 7.0 11.0 0.00 0.00 0.00 69 1015.4
20260504220510 64 254 7.0 11.0 0.00 0.00 0.00 70 1015.5
20260504220009 64 253 6.0 10.0 0.00 0.00 0.00 69 1015.5
20260504215507 64 261 5.0 10.0 0.00 0.00 0.00 69 1015.5
20260504215008 64 248 7.0 10.0 0.00 0.00 0.00 69 1015.5
20260504214515 64 263 7.0 11.0 0.00 0.00 0.00 69 1015.4
20260504214008 64 270 7.0 11.0 0.00 0.00 0.00 73 1015.4
20260504213506 64 267 8.0 11.0 0.00 0.00 0.00 73 1015.5
20260504213021 63 263 8.0 12.0 0.00 0.00 0.00 75 1015.4
20260504212511 62 240 7.0 12.0 0.00 0.00 0.00 75 1015.5
20260504212008 62 253 8.0 12.0 0.00 0.00 0.00 75 1015.5
20260504211516 63 249 8.0 11.0 0.00 0.00 0.00 74 1015.6
20260504211008 63 267 8.0 12.0 0.00 0.00 0.00 74 1015.5
20260504210510 63 257 8.0 12.0 0.00 0.00 0.00 74 1015.5
20260504210007 63 253 7.0 14.0 0.00 0.00 0.00 72 1015.4
20260504205507 63 248 7.0 14.0 0.00 0.00 0.00 73 1015.4
20260504205005 63 268 9.0 13.0 0.00 0.00 0.00 75 1015.5
20260504204521 63 274 10.0 12.0 0.00 0.00 0.00 72 1015.5
20260504204009 63 263 9.0 12.0 0.00 0.00 0.00 73 1015.5
20260504203506 63 252 7.0 12.0 0.00 0.00 0.00 72 1015.5
20260504203023 64 284 7.0 10.0 0.00 0.00 0.00 70 1015.4
20260504202507 64 261 6.0 9.0 0.00 0.00 0.00 70 1015.4
20260504202008 64 259 6.0 9.0 0.00 0.00 0.00 70 1015.4
20260504201521 63 265 7.0 9.0 0.00 0.00 0.00 70 1015.4
20260504201008 63 277 6.0 8.0 0.00 0.00 0.00 71 1015.4
20260504200508 63 275 5.0 7.0 0.00 0.00 0.00 72 1015.4
20260504200019 64 276 3.0 6.0 0.00 0.00 0.00 72 1015.5
20260504195507 64 273 3.0 4.0 0.00 0.00 0.00 72 1015.5
20260504195004 64 273 2.0 4.0 0.00 0.00 0.00 70 1015.6
20260504194515 65 273 2.0 6.0 0.00 0.00 0.00 69 1015.7
20260504194003 66 272 3.0 6.0 0.00 0.00 0.00 70 1015.7
20260504193508 64 252 3.0 4.0 0.00 0.00 0.00 71 1015.6
20260504193013 64 250 2.0 4.0 0.00 0.00 0.00 71 1015.6
20260504192510 63 249 2.0 4.0 0.00 0.00 0.00 74 1015.6
20260504192006 62 246 2.0 7.0 0.00 0.00 0.00 74 1015.7
20260504191518 62 246 3.0 7.0 0.00 0.00 0.00 74 1015.7
20260504191008 62 260 4.0 7.0 0.00 0.00 0.00 74 1015.7
20260504190507 62 260 3.0 7.0 0.00 0.00 0.00 75 1015.7
20260504190022 62 261 3.0 6.0 0.00 0.00 0.00 76 1015.7
20260504185509 62 261 2.0 6.0 0.00 0.00 0.00 74 1015.8
20260504185008 63 269 2.0 4.0 0.00 0.00 0.00 74 1015.8
20260504184527 64 269 2.0 4.0 0.00 0.00 0.00 74 1015.9
20260504184011 64 270 2.0 4.0 0.00 0.00 0.00 76 1015.8
20260504183509 63 273 2.0 4.0 0.00 0.00 0.00 75 1015.8
20260504183026 63 273 2.0 4.0 0.00 0.00 0.00 77 1015.8
20260504182504 62 275 1.0 6.0 0.00 0.00 0.00 77 1016.0
20260504182008 62 277 1.0 6.0 0.00 0.00 0.00 77 1015.9
20260504181522 61 277 2.0 6.0 0.00 0.00 0.00 77 1015.9
20260504181008 61 279 2.0 4.0 0.00 0.00 0.00 78 1015.9
20260504180508 61 279 2.0 6.0 0.00 0.00 0.00 77 1015.9
20260504180014 61 279 3.0 6.0 0.00 0.00 0.00 76 1015.8
20260504175509 62 279 2.0 6.0 0.00 0.00 0.00 76 1015.8
20260504175008 64 281 3.0 6.0 0.00 0.00 0.00 76 1016.0
20260504174522 64 279 3.0 6.0 0.00 0.00 0.00 78 1015.9
20260504174010 62 278 2.0 8.0 0.00 0.00 0.00 80 1016.0
20260504173509 61 278 3.0 8.0 0.00 0.00 0.00 79 1015.9